PSLV R/B, 41791

Orbit data source: Space-Track

PSLV R/B, 41791 is space debris in SSO originally from a launch on Mon, 26 Sep 2016 UTC launched from the Sirharikota (SRI). Debris objects in space refer to the collection of defunct objects orbiting the Earth. Examples of debris include non-operational satellites, rocket bodies, and fragments generated from explosions, collisions, or faulty payload assembly.

Loading next visibility...
Identifier
41791, 2016-059J
Orbit
SSO
Last TLE update
15 hours ago
Origin
Manufacturer
VSSC/LPSC
Mission
Spacecraft
Bus & Motor
PS-4, Unknown motor
Mass
920 kg wet, 920 kg dry
Launch date (UTC)
2016-09-26 (9 years ago)
Launch vehicle
Unknown
Launch site
Sirharikota (SRI)
Object type
Payload
Rocket body
Debris
Shape & HBR
Cyl + Cyl + 2 Nozzle, 3.238 m
Radar Cross Section
6.185 m², Large (>1 m²)

Expand to show TLE details & history

TLE from 15 hours ago
0 PSLV R/B
1 41791U 16059J   25128.62401874  .00000695  00000-0  14227-3 0  9992
2 41791  97.8555 154.3477 0042295 124.9235 235.5953 14.63143414459508
Epoch: 2025-05-08T14:58Z
Definitive object data (Epoch: 2025-05-08T14:58:35.219Z)
Latitude
-0.00001°
Longitude
63.00911°
Altitude
703.006 km
Speed
7.495 km/s
True Right ascension
10h 17m 23s
True Declination
0° 00' 00"
Sunlit
Object was in daylight at TLE epoch
Visualization TLE readout
Latitude
53.84173°
Longitude
-105.55889°
Altitude
662.053 km
Speed
7.547 km/s
Apparent Right ascension
00h 54m 25s
Apparent Declination
11° 00' 11"
Sunlit
Object is in daylight
Visualization observer readout
Local Sidereal Time
14:27:53
Azimuth
28.248° NE
Elevation
-34.658°
Doppler factor
1
Orbital elements
Apogee altitude
709.957 km
Perigee altitude
650.251 km
Semi-major axis
7,058.241 km
Eccentricity
0.0042295
Inclination
97.8555°
RAAN
154.3477°
Arg. of periapsis
124.9235°
True anomaly
235.19661°
Mean anomaly
235.5953°
Eccentric anomaly
235.39584°
Mean motion
3.66015 °/min
BSTAR
0.00014227
Orbital period
98.36 mins
Loading maneuver chart data...
Loading SW <> Apogee altitude chart data...
Loading historical data...
Loading historical data...
Loading historical data...
Loading historical data...
Loading historical data...
Loading historical data...
Loading historical data...

PSLV R/B Visibility forecast

Observer location: undefined°, undefined°

Span
Click to sort rows by Start time (UTC) header in descending order
Start Az.
Max El. time (UTC)
Max El. Az.
Max El.
End time (UTC)
End Az.
8 mins2025-05-09 14:31:04.161Z13.488° NNE2025-05-09 14:35:04.161Z37.013° NE44.533°2025-05-09 14:39:04.161Z191.777° SSW
7 mins2025-05-10 01:35:04.161Z158.069° S2025-05-10 01:38:04.161Z30.715° NE43.536°2025-05-10 01:42:04.161Z350.913° N
|